Location: Taupo
(38.6830°S, 176.0830°E)
Time: 01:32:18
(UTC+13:00)

Atlas Centaur 2 - Pass Details

Date: 24 January 2019
Orbit: 459 x 1311 km, 30.4° (Epoch: 19 February)

Event Time Altitude Azimuth Distance (km) Brightness Sun altitude
Rises 22:21:28 0° 288° (WNW) 4,201 6.2 -17.5°
Reaches altitude 10° 22:24:26 10° 293° (WNW) 3,289 5.5 -17.9°
Maximum altitude 22:32:30 48° 3° (N) 1,661 3.4 -19.0°
Enters shadow 22:36:36 28° 59° (ENE) 2,195 3.8 -19.6°
